COSMOS 1275 DEB, 12675

Orbit data source: Space-Track

COSMOS 1275 DEB, 12675 is space debris in LEO originally from a launch on Thu, 04 Jun 1981 UTC launched from the Plesetsk Missile And Space Complex (PKMTR). Debris objects in space refer to the collection of defunct objects orbiting the Earth. Examples of debris include non-operational satellites, rocket bodies, and fragments generated from explosions, collisions, or faulty payload assembly.

Loading next visibility...
Identifier
12675, 1981-053AF
Orbit
LEO
Last TLE update
9 hours ago
Origin
Manufacturer
Unknown
Mission
Spacecraft
Bus & Motor
Unknown
Mass
Unknown
Launch date (UTC)
1981-06-04 (44 years ago)
Launch vehicle
Unknown
Launch site
Plesetsk Missile And Space Complex (PKMTR)
Object type
Payload
Rocket body
Debris
Shape & HBR
Unknown
Radar Cross Section
Medium (>0.1 m² and <1 m²)

Expand to show TLE details & history

TLE from 9 hours ago
0 COSMOS 1275 DEB
1 12675U 81053AF  25188.94460374  .00000479  00000-0  43588-3 0  9990
2 12675  82.9366 160.0263 0064111 171.8110 243.0122 13.80474553201048
Epoch: 2025-07-07T22:40Z
TLE epoch observation values (Epoch: 2025-07-07T22:40:13.763Z)
Latitude
53.67027°
Longitude
-96.52806°
Altitude
992.602 km
Speed
7.35 km/s
True Right ascension
11h 18m 42s
True Declination
53° 30' 40"
Sunlit
Object was in daylight at epoch
Visualization orbit readout
Latitude
35.40041°
Longitude
-101.42039°
Altitude
1,000.161 km
Speed
7.338 km/s
Apparent Right ascension
09h 22m 42s
Apparent Declination
1° 04' 32"
Sunlit
Object is in daylight
Visualization observer readout
Local Sidereal Time
19:22:12
Azimuth
318.603° NNW
Elevation
-40.633°
Doppler factor
1
Orbital elements
Apogee altitude
1,006.387 km
Perigee altitude
912.304 km
Semi-major axis
7,337.482 km
Eccentricity
0.00641
Inclination
82.9366°
RAAN
160.0263°
Arg. of periapsis
171.811°
True anomaly
Unknown
Mean anomaly
243.0122°
Eccentric anomaly
Unknown
Mean motion
3.45321 °/min
Orbital period
104.25 mins
BSTAR
0.00043588
Loading maneuver chart data...
Loading SW <> Apogee altitude chart data...
Loading historical data...
Loading historical data...
Loading historical data...
Loading historical data...
Loading historical data...
Loading historical data...
Loading historical data...

COSMOS 1275 DEB Visibility forecast

Observer location: undefined°, undefined°

Span
Click to sort rows by Start time (UTC) header in descending order
Start Az.
Max El. time (UTC)
Max El. Az.
Max El.
End time (UTC)
End Az.
10 mins2025-07-08 09:25:40.480Z8.041° NNE2025-07-08 09:30:40.480Z73.128° E34.499°2025-07-08 09:35:40.480Z145.723° SSE
7 mins2025-07-08 11:12:40.480Z313.252° NW2025-07-08 11:15:40.480Z273.402° WNW22.569°2025-07-08 11:19:40.480Z226.365° WSW
4 mins2025-07-08 21:11:40.480Z95.288° ESE2025-07-08 21:12:40.480Z85.284° E13.12°2025-07-08 21:15:40.480Z55.632° ENE
10 mins2025-07-08 22:52:40.480Z189.168° SSW2025-07-08 22:57:40.480Z322.715° NNW44.612°2025-07-08 23:02:40.480Z4.988° NNE
|